Terminal Aerodrome Forecast
Issued by NWS

Home | Current Version | Previous Version | Text Only | Print | Product List | Glossary On
Versions: 1 2 3 4 5 6 7 8 9 10 11 12 13 14 15 16 17 18 19 20 21 22 23 24 25 26 27 28
000
FTUS41 KPBZ 191100 CCA
TAFFKL
TAF COR
KFKL 191143Z 1912/2012 27007KT 6SM BR BKN006 OVC010
      TEMPO 1914/1916 5SM -FZDZ BR
     FM192000 31006KT P6SM BKN025
      AMD LTD TO CLD VIS AND WIND=

USA.gov is the U.S. government's official web portal to all federal, state and local government web resources and services.